This demonstration page uses our WeatherBlox Daily Observations layout. Learn more.

Left ArrowRight Arrow

38.20091, -84.87328

Hourly Observations for August 24, 2021

Temp ( °F °C ) Dew Point ( °F °C ) Humidity (%) Winds ( mph kmh ) Pressure ( in mb ) Visibility ( mi km ) Precip ( " mm )
12:53 am 00:53 Mostly Cloudy 77 25 73 22.8 88 88 WSW 3 6 30.00 1016 9 14 0.00 0.00
1:53 am 01:53 Clear 76 24.4 74 23.3 94 94 Calm 30.00 1016 8 13 0.00 0.00
2:53 am 02:53 Clear with Mist and Fog 75 23.9 73 22.8 94 94 Calm 30.01 1016 6 10 0.00 0.00
3:53 am 03:53 Clear with Mist and Fog 74 23.3 72 22.2 94 94 Calm 30.01 1016 6 10 0.00 0.00
4:53 am 04:53 Clear with Mist and Fog 73 22.8 71 21.7 94 94 Calm 30.01 1016 6 10 0.00 0.00
5:53 am 05:53 Clear with Mist and Fog 73 22.8 71 21.7 94 94 Calm 30.01 1016 4 6 0.00 0.00
6:53 am 06:53 Clear with Mist and Fog 72 22.2 70 21.1 94 94 Calm 30.02 1017 5 8 0.00 0.00
7:53 am 07:53 Sunny with Mist and Fog 73 22.8 71 21.7 94 94 Calm 30.04 1017 4 6 0.00 0.00
8:53 am 08:53 Hazy 79 26.1 74 23.3 85 85 SSW 3 6 30.04 1017 6 10 0.00 0.00
9:53 am 09:53 Sunny 84 28.9 74 23.3 72 72 Calm 30.04 1017 10 16 0.00 0.00
10:53 am 10:53 Sunny 87 30.6 72 22.2 61 61 Calm 30.05 1018 10 16 0.00 0.00
11:53 am 11:53 Mostly Sunny 88 31.1 72 22.2 59 59 VRB 5 7 30.05 1018 10 16 0.00 0.00
12:53 pm 12:53 Sunny 90 32.2 72 22.2 56 56 Calm 30.05 1018 10 16 0.00 0.00
1:53 pm 13:53 Mostly Sunny 89 31.7 72 22.2 57 57 W 5 7 30.05 1018 10 16 0.00 0.00
2:53 pm 14:53 Partly Cloudy 91 32.8 72 22.2 54 54 VRB 3 6 30.04 1017 10 16 0.00 0.00
3:53 pm 15:53 Sunny 92 33.3 71 21.7 51 51 SSW 7 11 30.01 1016 10 16 0.00 0.00
4:53 pm 16:53 Sunny 92 33.3 72 22.2 52 52 W 5 7 30.00 1016 10 16 0.00 0.00
5:53 pm 17:53 Sunny 91 32.8 71 21.7 52 52 SW 7 11 30.00 1016 10 16 0.00 0.00
6:53 pm 18:53 Sunny 89 31.7 72 22.2 57 57 SW 6 9 29.99 1016 10 16 0.00 0.00
7:53 pm 19:53 Sunny 86 30 74 23.3 67 67 SW 3 6 29.98 1015 10 16 0.00 0.00
8:53 pm 20:53 Clear 80 26.7 75 23.9 85 85 Calm 29.99 1016 9 14 0.00 0.00
9:53 pm 21:53 Clear 80 26.7 74 23.3 82 82 Calm 30.01 1016 9 14 0.00 0.00
10:53 pm 22:53 Clear 76 24.4 73 22.8 91 91 Calm 30.03 1017 7 11 0.00 0.00
11:53 pm 23:53 Clear 77 25 74 23.3 90 90 Calm 30.04 1017 7 11 0.00 0.00

Powered by AerisWeather